| time (UTC) | temp C | wind direction | speed KPH | gust KPH | rain 1hr cm | rain 24hr cm | rain mn cm | humidity % | barometer mb |
| 20260506160026 | 11 | 345 | 1.6 | 9.7 | 0.00 | 3.51 | 0.79 | 69 | 1013.5 |
| 20260506154530 | 11 | 327 | 0.0 | 4.8 | 0.00 | 3.51 | 0.79 | 70 | 1012.9 |
| 20260506153031 | 10 | 352 | 4.8 | 12.9 | 0.00 | 3.51 | 0.79 | 71 | 1012.9 |
| 20260506151534 | 10 | 347 | 1.6 | 16.1 | 0.00 | 3.51 | 0.79 | 73 | 1012.9 |
| 20260506150040 | 10 | 10 | 4.8 | 17.7 | 0.00 | 3.51 | 0.79 | 75 | 1012.5 |
| 20260506144540 | 10 | 328 | 0.0 | 12.9 | 0.00 | 3.51 | 0.79 | 76 | 1012.2 |
| 20260506143044 | 10 | 325 | 0.0 | 4.8 | 0.00 | 3.51 | 0.79 | 79 | 1012.0 |
| 20260506141548 | 9 | 355 | 0.0 | 6.4 | 0.00 | 3.51 | 0.79 | 80 | 1012.5 |
| 20260506140051 | 9 | 337 | 1.6 | 12.9 | 0.00 | 3.51 | 0.79 | 80 | 1012.1 |
| 20260506134616 | 8 | 338 | 0.0 | 8.0 | 0.00 | 3.51 | 0.79 | 82 | 1012.2 |
| 20260506133059 | 8 | 33 | 0.0 | 4.8 | 0.00 | 3.51 | 0.79 | 83 | 1012.0 |
| 20260506131612 | 7 | 344 | 0.0 | 6.4 | 0.00 | 3.51 | 0.79 | 87 | 1011.9 |
| 20260506131504 | 7 | 339 | 0.0 | 6.4 | 0.00 | 3.51 | 0.79 | 87 | 1011.9 |
| 20260506130005 | 7 | 336 | 0.0 | 9.7 | 0.00 | 3.51 | 0.79 | 87 | 1011.6 |
| 20260506124603 | 7 | 325 | 0.0 | 4.8 | 0.00 | 3.51 | 0.79 | 88 | 1011.8 |
| 20260506124508 | 7 | 337 | 0.0 | 4.8 | 0.00 | 3.51 | 0.79 | 88 | 1011.8 |
| 20260506123058 | 7 | 354 | 0.0 | 8.0 | 0.00 | 3.51 | 0.79 | 89 | 1011.3 |
| 20260506123006 | 7 | 356 | 0.0 | 8.0 | 0.00 | 3.51 | 0.79 | 89 | 1011.3 |
| 20260506121546 | 6 | 345 | 0.0 | 6.4 | 0.00 | 3.51 | 0.79 | 89 | 1011.3 |
| 20260506120042 | 6 | 356 | 0.0 | 6.4 | 0.00 | 3.51 | 0.79 | 90 | 1010.9 |
| 20260506114533 | 6 | 348 | 1.6 | 9.7 | 0.00 | 3.51 | 0.79 | 90 | 1010.3 |
| 20260506113029 | 6 | 345 | 0.0 | 3.2 | 0.00 | 3.51 | 0.79 | 90 | 1010.1 |
| 20260506111525 | 6 | 352 | 0.0 | 4.8 | 0.00 | 3.51 | 0.79 | 90 | 1009.9 |
| 20260506110031 | 6 | 342 | 0.0 | 8.0 | 0.00 | 3.53 | 0.79 | 90 | 1009.9 |
| 20260506104531 | 6 | 352 | 0.0 | 8.0 | 0.00 | 3.53 | 0.79 | 91 | 1009.6 |
| 20260506103034 | 6 | 343 | 0.0 | 8.0 | 0.00 | 3.53 | 0.79 | 90 | 1009.1 |
| 20260506101537 | 6 | 360 | 0.0 | 8.0 | 0.00 | 3.53 | 0.79 | 91 | 1009.2 |
| 20260506100040 | 6 | 352 | 1.6 | 9.7 | 0.00 | 3.66 | 0.79 | 90 | 1009.3 |
| 20260506094542 | 6 | 2 | 1.6 | 8.0 | 0.00 | 3.66 | 0.79 | 90 | 1008.8 |
| 20260506093019 | 6 | 360 | 1.6 | 12.9 | 0.00 | 3.66 | 0.79 | 90 | 1008.9 |
| 20260506091520 | 6 | 335 | 3.2 | 9.7 | 0.00 | 3.66 | 0.79 | 90 | 1008.3 |
| 20260506090024 | 6 | 345 | 3.2 | 9.7 | 0.03 | 4.17 | 0.79 | 90 | 1008.5 |
| 20260506084530 | 6 | 353 | 0.0 | 9.7 | 0.03 | 4.17 | 0.79 | 90 | 1008.6 |
| 20260506083037 | 6 | 298 | 0.0 | 9.7 | 0.05 | 4.17 | 0.79 | 90 | 1007.9 |
| 20260506081548 | 6 | 300 | 3.2 | 17.7 | 0.08 | 4.17 | 0.79 | 90 | 1007.6 |
| 20260506073033 | 6 | 341 | 0.0 | 9.7 | 0.03 | 4.14 | 0.71 | 89 | 1008.3 |
| 20260506071534 | 6 | 334 | 4.8 | 19.3 | 0.05 | 4.11 | 0.71 | 88 | 1008.0 |
| 20260506061543 | 7 | 354 | 8.0 | 22.5 | 0.18 | 4.06 | 0.66 | 92 | 1008.6 |
| 20260506044555 | 7 | 333 | 14.5 | 24.1 | 0.43 | 3.66 | 0.25 | 92 | 1008.4 |
| 20260506043057 | 7 | 344 | 0.0 | 9.7 | 0.43 | 3.48 | 0.08 | 92 | 1008.0 |
| 20260506041602 | 7 | 20 | 0.0 | 4.8 | 0.43 | 3.45 | 0.05 | 92 | 1007.2 |
| 20260506040049 | 7 | 290 | 0.0 | 12.9 | 0.38 | 3.40 | 0.00 | 92 | 1007.5 |
| 20260506034542 | 7 | 20 | 0.0 | 20.9 | 0.18 | 3.20 | 3.23 | 92 | 1007.9 |
| 20260506033045 | 8 | 338 | 6.4 | 19.3 | 0.05 | 3.05 | 3.05 | 92 | 1007.7 |
| 20260506031548 | 8 | 344 | 0.0 | 9.7 | 0.08 | 3.02 | 3.02 | 92 | 1007.5 |
| 20260506030047 | 8 | 42 | 0.0 | 0.0 | 0.13 | 3.02 | 3.02 | 92 | 1007.3 |
| 20260506024552 | 8 | 329 | 0.0 | 1.6 | 0.20 | 3.02 | 3.02 | 91 | 1007.4 |
| 20260506023051 | 8 | 96 | 0.0 | 4.8 | 0.25 | 3.00 | 3.00 | 91 | 1007.6 |
| 20260506021549 | 8 | 300 | 0.0 | 6.4 | 0.20 | 2.90 | 2.92 | 91 | 1007.8 |
| 20260506020033 | 8 | 354 | 0.0 | 1.6 | 0.28 | 2.84 | 2.87 | 92 | 1007.8 |
| 20260506014537 | 8 | 352 | 0.0 | 6.4 | 0.33 | 2.79 | 2.82 | 92 | 1007.9 |
| 20260506013040 | 8 | 349 | 1.6 | 12.9 | 0.43 | 2.74 | 2.74 | 92 | 1007.6 |
| 20260506011610 | 8 | 339 | 4.8 | 16.1 | 0.58 | 2.72 | 2.72 | 91 | 1007.2 |
| 20260506010050 | 8 | 344 | 12.9 | 20.9 | 0.58 | 2.59 | 2.59 | 92 | 1007.8 |
| 20260506004604 | 8 | 356 | 16.1 | 22.5 | 0.56 | 2.46 | 2.49 | 92 | 1007.9 |
| 20260506003051 | 9 | 341 | 11.3 | 19.3 | 0.66 | 2.31 | 2.31 | 91 | 1007.7 |
| 20260506001601 | 9 | 20 | 16.1 | 24.1 | 0.91 | 2.13 | 2.13 | 91 | 1007.3 |
| 20260506000119 | 9 | 354 | 14.5 | 24.1 | 0.94 | 2.01 | 2.01 | 91 | 1007.0 |
| 20260505234604 | 10 | 345 | 17.7 | 29.0 | 0.94 | 1.91 | 1.91 | 91 | 1006.8 |
| 20260505234502 | 10 | 331 | 17.7 | 29.0 | 0.91 | 1.88 | 1.88 | 91 | 1006.7 |
| 20260505233102 | 10 | 339 | 19.3 | 30.6 | 0.71 | 1.68 | 1.68 | 91 | 1006.6 |
| 20260505233001 | 10 | 348 | 19.3 | 30.6 | 0.69 | 1.65 | 1.65 | 91 | 1006.6 |
| 20260505231613 | 13 | 335 | 20.9 | 27.4 | 0.25 | 1.22 | 1.22 | 89 | 1006.6 |
| 20260505231501 | 13 | 327 | 17.7 | 27.4 | 0.23 | 1.19 | 1.19 | 90 | 1006.5 |
| 20260505230009 | 15 | 204 | 0.0 | 3.2 | 0.08 | 1.04 | 1.04 | 91 | 1005.8 |
| 20260505224521 | 15 | 209 | 0.0 | 3.2 | 0.00 | 0.97 | 0.97 | 91 | 1006.0 |
| 20260505223005 | 15 | 217 | 0.0 | 1.6 | 0.00 | 0.97 | 0.97 | 91 | 1006.2 |
| 20260505221517 | 15 | 206 | 0.0 | 3.2 | 0.00 | 0.97 | 0.97 | 91 | 1006.3 |
| 20260505220009 | 15 | 277 | 0.0 | 0.0 | 0.00 | 0.97 | 0.97 | 91 | 1006.4 |
| 20260505214555 | 15 | 277 | 0.0 | 0.0 | 0.00 | 0.97 | 0.97 | 91 | 1006.4 |
| 20260505213059 | 15 | 277 | 0.0 | 0.0 | 0.03 | 0.97 | 0.97 | 91 | 1006.4 |
| 20260505213001 | 15 | 277 | 0.0 | 0.0 | 0.03 | 0.97 | 0.97 | 91 | 1006.4 |
| 20260505211516 | 15 | 277 | 0.0 | 0.0 | 0.05 | 0.97 | 0.97 | 91 | 1006.3 |
| 20260505210017 | 15 | 277 | 0.0 | 3.2 | 0.05 | 0.97 | 0.97 | 91 | 1006.3 |
| 20260505204505 | 15 | 225 | 0.0 | 0.0 | 0.10 | 0.97 | 0.97 | 91 | 1006.3 |
| 20260505203015 | 15 | 188 | 0.0 | 4.8 | 0.18 | 0.94 | 0.94 | 91 | 1006.5 |
| 20260505201520 | 15 | 304 | 0.0 | 6.4 | 0.20 | 0.91 | 0.91 | 90 | 1006.8 |
| 20260505200028 | 15 | 282 | 0.0 | 4.8 | 0.20 | 0.91 | 0.91 | 90 | 1006.7 |
| 20260505194515 | 15 | 283 | 3.2 | 8.0 | 0.15 | 0.86 | 0.86 | 89 | 1007.1 |
| 20260505193020 | 16 | 292 | 1.6 | 8.0 | 0.03 | 0.71 | 0.76 | 88 | 1007.2 |
| 20260505191525 | 16 | 298 | 0.0 | 6.4 | 0.00 | 0.71 | 0.71 | 86 | 1006.9 |
| 20260505190037 | 17 | 250 | 1.6 | 6.4 | 0.00 | 0.71 | 0.71 | 83 | 1007.1 |
| 20260505184545 | 17 | 291 | 0.0 | 0.0 | 0.03 | 0.71 | 0.71 | 82 | 1006.9 |
| 20260505183047 | 17 | 251 | 0.0 | 3.2 | 0.03 | 0.71 | 0.71 | 79 | 1007.1 |
| 20260505181556 | 17 | 281 | 1.6 | 9.7 | 0.03 | 0.71 | 0.71 | 80 | 1007.1 |
| 20260505180058 | 17 | 265 | 0.0 | 12.9 | 0.03 | 0.71 | 0.71 | 80 | 1007.2 |
| 20260505174559 | 17 | 310 | 0.0 | 3.2 | 0.00 | 0.69 | 0.69 | 81 | 1007.1 |
| 20260505174503 | 17 | 310 | 0.0 | 3.2 | 0.00 | 0.69 | 0.69 | 82 | 1007.1 |
| 20260505173002 | 18 | 5 | 0.0 | 4.8 | 0.00 | 0.69 | 0.69 | 80 | 1007.1 |
| 20260505171506 | 18 | 283 | 1.6 | 4.8 | 0.00 | 0.69 | 0.69 | 80 | 1007.1 |
| 20260505170012 | 18 | 289 | 0.0 | 4.8 | 0.00 | 0.69 | 0.69 | 80 | 1007.2 |
| 20260505164517 | 18 | 290 | 0.0 | 4.8 | 0.00 | 0.69 | 0.69 | 80 | 1007.3 |
| 20260505163018 | 18 | 281 | 0.0 | 6.4 | 0.00 | 0.69 | 0.69 | 80 | 1007.4 |
| 20260505161525 | 18 | 302 | 0.0 | 9.7 | 0.00 | 0.69 | 0.69 | 80 | 1007.5 |